Torna al catalogo

DMSP 5D-2 F13 DEB

AttivoSSO
NORAD 40479·DEBRIS·🇺🇸 United States

Lanciato Mar 24, 1995 da Vandenberg Space Force Base

Loading…

Prossimi Passaggi (prossime 24 ore)

TLE

AggiornatoSource: Space-Track

Epoca: Sep 12, 2026, 11:51 UTC

1 40479U 95015BX  26255.49443514  .00000617  00000-0  29599-3 0  9999
2 40479  98.7554 274.9864 0004349 130.0211 230.1349 14.22569012595498

Traccia DMSP 5D-2 F13 DEB in tempo reale con AllMySat

Download on the App Store